Location: NJAA Observatory
(40.6819°N, 74.8979°W)
Time: 00:27:05
(UTC-04:00)

Daily predictions for brighter satellites

Satellite Brightness Start Highest point End
(mag) Time Altitude Azimuth Time Altitude Azimuth Time Altitude Azimuth
SL-16 R/B 3.8 00:11:48 31° NNW 00:11:48 31° NNW 00:15:39 10° N
Cosmos 2360 Rocket 3.9 00:32:37 28° N 00:32:37 28° N 00:35:18 10° NNE
Cosmos 1844 Rocket 4.5 00:24:51 10° NNW 00:27:35 27° N 00:27:35 27° N
ATLAS 3B R/B 4.3 00:53:16 26° ENE 00:53:16 26° ENE 00:56:46 10° NE
Cosmos 2219 Rocket 4.3 00:55:54 19° NE 00:55:54 19° NE 00:57:33 10° NNE
Cosmos 2333 Rocket 4.3 01:03:46 21° NE 01:03:46 21° NE 01:05:39 10° NE
Cosmos 2237 Rocket 4.3 01:10:34 20° NE 01:10:34 20° NE 01:12:25 10° NE
COSMOS 2428 4.5 01:19:05 28° N 01:19:05 28° N 01:21:53 10° NNE
Cosmos 2278 Rocket 4.0 01:36:14 10° NNW 01:38:34 26° NNW 01:38:34 26° NNW
COSMOS 2455 4.0 02:11:16 39° N 02:11:16 39° N 02:15:14 10° NNE
CZ-4C R/B 3.5 02:28:47 36° ENE 02:28:47 36° ENE 02:32:25 10° NE
Cosmos 2219 Rocket 4.0 02:37:37 22° NW 02:37:37 22° NW 02:40:52 10° N
ATLAS 3B R/B 3.3 02:40:31 52° NW 02:40:35 52° NW 02:47:49 10° NNE
Cosmos 2333 Rocket 3.8 02:45:46 26° NW 02:45:46 26° NW 02:49:33 10° N
SL-16 R/B 3.1 02:46:25 45° N 02:46:25 45° N 02:50:27 10° NNE
Cosmos 2237 Rocket 3.8 02:52:23 26° NW 02:52:23 26° NW 02:56:08 10° N
SL-16 R/B 3.8 02:49:18 23° ESE 02:52:16 36° ENE 02:57:50 10° N
S3M 4.2 02:57:10 62° E 02:57:10 62° E 03:03:13 10° NNE
ADEOS 4.5 02:52:00 10° NNE 02:56:08 45° ENE 02:56:08 45° ENE
Cosmos 1867 4.3 02:58:54 49° NNE 02:58:54 49° NNE 03:02:58 10° NNE
Resurs 1-4 Rocket 3.4 03:02:25 10° NNE 03:07:07 32° E 03:07:28 32° ESE
ARIANE 5 R/B 3.4 03:05:47 10° NNE 03:10:37 44° E 03:10:37 44° E
Cosmos 1553 Rocket 3.8 03:18:01 86° N 03:18:01 86° N 03:24:03 10° N
ERS-2 4.3 03:16:32 10° NNE 03:18:17 25° NNE 03:18:17 25° NNE
Cosmos 1745 Rocket 4.0 03:15:41 10° N 03:22:04 83° E 03:22:44 72° SSE
Cosmos 1603 3.7 03:27:28 75° NNW 03:27:28 75° NNW 03:32:53 10° NNE
ATLAS 5 CENTAUR R/B 3.8 03:27:55 19° ESE 03:28:34 19° ESE 03:32:07 10° ENE
USA 238 DEB 4.1 03:28:04 46° WNW 03:29:00 49° NW 03:35:51 10° NNE
USA 234 3.1 03:22:28 10° NE 03:29:04 88° NW 03:29:55 70° SW
USA 238 4.1 03:28:10 47° WNW 03:29:06 49° NW 03:35:57 10° NNE
SL-08 R/B 4.4 03:28:47 10° NNW 03:34:32 66° WNW 03:34:32 66° WNW
SeaSat 1 4.0 03:31:03 10° ESE 03:35:27 34° NE 03:39:53 10° N
Meteor 2-3 Rocket 4.1 03:29:55 10° N 03:35:39 63° ENE 03:37:45 39° SE
In-Cosmos 22 Rocket 4.1 03:30:57 10° N 03:36:17 74° E 03:36:46 68° SE
ATLAS CENTAUR R/B 2.8 03:35:55 10° NNW 03:40:01 37° NE 03:43:46 10° ESE
Cosmos 158 Rocket 4.0 03:41:36 67° NNW 03:41:36 67° NNW 03:46:10 10° NNE
Cosmos 2251 Rocket 3.5 03:41:12 72° SE 03:41:26 73° ESE 03:46:41 10° NNE
NOSS 3-2 (A) 3.3 03:44:53 66° WSW 03:45:44 78° NW 03:52:24 10° NNE
Cosmos 1892 4.0 03:44:15 10° N 03:47:52 37° ENE 03:48:19 36° E
Cosmos 1110 Rocket 4.0 03:43:15 10° NNW 03:48:29 81° ENE 03:49:49 51° SSE
NOSS 3-3 (A) 4.4 03:47:52 10° NW 03:55:23 87° WSW 04:03:21 10° SSE
NOSS 3-3 (C) 4.4 03:47:59 10° NW 03:55:29 87° WSW 04:03:28 10° SSE
Meteor 2-10 4.4 03:55:26 39° SSE 03:57:24 65° E 04:02:49 10° NNE
Cosmos 1707 Rocket 3.9 03:59:34 57° NW 03:59:34 57° NW 04:03:26 10° N
Cosmos 1943 3.1 03:57:58 57° S 03:59:11 83° ESE 04:04:52 10° NNE
NOSS 3-2 (C) 3.4 03:59:51 54° WSW 04:01:17 75° NW 04:07:58 10° NNE
CZ-2D R/B 2.0 04:00:37 10° N 04:05:54 75° WNW 04:06:51 58° SW
Cosmos 883 Rocket 4.3 04:04:59 48° SSW 04:06:43 74° W 04:12:53 10° N
Cosmos 1300 4.4 04:08:26 23° NW 04:08:26 23° NW 04:10:21 10° NNW
CENTAUR R/B 3.8 04:04:39 18° SSE 04:08:20 33° ESE 04:14:10 10° NE
Cosmos 1726 3.7 04:09:58 25° NNW 04:09:58 25° NNW 04:11:57 10° N
Cosmos 2369 Rocket 2.1 04:05:42 10° NNW 04:11:20 87° WSW 04:16:57 10° SSE
Cosmos 839 Rocket 4.2 04:03:30 10° NNW 04:11:39 74° WSW 04:18:12 10° SSE
CZ-4B R/B 4.3 04:08:49 10° NNE 04:13:46 38° E 04:18:25 11° SSE
Cosmos 2315 Rocket 3.9 04:10:59 33° S 04:14:03 89° E 04:20:22 10° N
CZ-4C R/B 3.5 04:13:58 24° WNW 04:15:37 27° NW 04:20:46 10° NNE
Okean O Rocket 2.4 04:13:30 10° NNE 04:17:51 50° E 04:20:19 24° SSE
Cosmos 1455 2.3 04:19:26 56° SSE 04:20:09 76° E 04:24:04 10° N
ARGOS Delta rocket 3.7 04:20:27 10° NNE 04:24:53 75° E 04:26:51 32° S
SL-16 R/B 4.3 04:28:18 10° WNW 04:30:01 12° NW 04:31:56 10° NNW
Cosmos 494 Rocket 4.2 04:29:15 40° WSW 04:30:46 55° WNW 04:35:57 10° N
MTI 3.9 04:31:15 59° WNW 04:31:15 59° WNW 04:34:12 10° NNW
Abrixas rocket 4.4 04:30:26 16° NW 04:31:53 21° N 04:34:31 10° NE
SL-16 R/B 3.0 04:34:24 32° SW 04:35:50 36° W 04:41:29 10° NNW
CZ-2C R/B 3.7 04:31:23 10° SSE 04:35:51 79° ENE 04:40:17 10° N
IRS-1D 4.4 04:31:26 10° N 04:36:01 32° WNW 04:37:09 29° W
PAYLOAD B 4.5 04:31:53 10° NNE 04:37:26 69° ESE 04:42:28 12° S
Cosmos 2292 Rocket 4.0 04:36:29 10° NNW 04:38:11 28° NW 04:38:11 28° NW
Cosmos 1302 Rocket 3.9 04:34:06 10° NNW 04:39:20 70° WSW 04:44:31 10° S
CZ-3A R/B 4.5 04:32:24 26° WSW 04:40:02 76° NNW 06:33:45 10° ENE
CZ-2D R/B 3.7 04:36:18 10° N 04:40:38 56° WNW 04:42:04 37° SW
Cosmos 2263 4.1 04:34:52 10° NNW 04:40:38 71° WSW 04:46:23 10° SSE
Cosmos 389 Rocket 2.7 04:39:50 29° S 04:41:27 68° E 04:44:56 10° NNE
Cosmos 1943 Rocket 2.4 04:36:22 10° NNW 04:42:03 72° ENE 04:47:41 10° SSE
MOZ.5/SAFIR/RUBIN 5/SL-8 3.6 04:41:44 10° S 04:46:22 76° WSW 04:51:01 10° NNW
Resurs 1-4 Rocket 3.0 04:42:18 10° N 04:46:53 31° WNW 04:48:33 26° W
Cosmos 1862 4.1 04:45:37 10° N 04:49:32 53° E 04:53:24 10° SSE
ARIANE 5 R/B 3.8 04:45:32 10° NNW 04:49:36 23° WNW 04:50:57 21° W
CZ-4B R/B 2.7 04:47:16 10° NNE 04:50:54 78° E 04:53:37 18° S
PSLV R/B 3.2 04:50:52 39° W 04:52:03 85° N 04:55:28 10° E
UNKNOWN OBJECT B 4.0 04:55:48 10° NNW 04:58:43 22° WNW 04:59:07 22° W
Cosmos 1825 2.5 04:56:32 10° N 05:00:20 66° E 05:04:05 10° SSE
Cosmos 1933 3.4 04:58:01 10° S 05:02:07 81° E 05:06:14 10° N
Cosmos 1869 3.7 05:00:56 26° SW 05:02:45 43° WNW 05:06:33 10° N
ADEOS II 3.0 05:00:04 10° NNE 05:05:12 50° E 05:10:16 10° S
Cosmos 1408 2.8 05:01:54 10° N 05:05:38 76° E 05:09:22 10° SSE
PSLV R/B 4.1 05:02:43 10° NNE 05:07:03 61° E 05:11:23 10° S
Cosmos 1862 Rocket 4.0 05:05:10 21° SW 05:07:38 41° WNW 05:11:49 10° N
Nadezhda 1 Rocket 4.1 05:01:33 10° S 05:07:46 82° E 05:14:08 10° N
Cosmos 1184 Rocket 3.3 05:04:40 10° NNW 05:07:54 39° W 05:10:14 16° SSW
Geosat 4.1 05:03:18 10° NNE 05:08:21 77° ESE 05:13:22 10° SSW
USA 234 4.4 05:05:51 10° NE 05:11:33 33° NNW 05:17:15 10° W
ATLAS 5 CENTAUR R/B 2.2 05:09:30 20° WSW 05:12:44 53° NW 05:17:52 10° NNE
SeaSat 1 3.1 05:08:34 10° S 05:12:57 32° WSW 05:17:21 10° NW
Okean 2 Rocket 4.1 05:09:03 10° N 05:13:27 51° E 05:17:50 10° SSE
NAVSTAR 52 R/B(PAM-D 3.5 05:15:54 32° S 05:15:57 32° S 05:17:30 10° ESE
Thor Agena Rocket 3.5 05:11:01 10° S 05:16:06 68° WSW 05:21:18 10° NNW
Atlas Centaur 2 4.1 05:14:31 10° S 05:16:35 12° SSE 05:18:49 10° SE
Cosmos 1656 Rocket 4.1 05:12:12 10° NNW 05:17:37 66° ENE 05:22:59 10° SSE
Pageos (A) 3.8 05:16:51 10° NNW 05:18:45 28° W 05:19:05 26° WSW
ATLAS CENTAUR R/B 2.6 05:15:39 10° WNW 05:18:47 20° WSW 05:21:43 10° SSW
BREEZE-M DEB (TANK) 1.7 05:20:06 10° WNW 05:22:18 87° NNE 05:25:16 10° ESE
CZ-3 R/B 4.3 04:49:17 10° W 05:27:04 38° SW 05:37:09 10° SSE
Okean 1-7 3.2 05:24:30 10° S 05:28:45 77° E 05:33:06 10° N
USA 32 4.0 05:23:43 10° SSW 05:28:55 68° W 05:34:09 10° N
Cosmos 2074 Rocket 4.2 05:24:39 10° NNW 05:30:35 49° W 05:36:32 10° SSW
Cosmos 2154 Rocket 4.2 05:24:21 10° N 05:30:42 82° E 05:37:03 10° S
Cosmos 2184 Rocket 4.3 05:26:13 10° NNW 05:32:21 50° W 05:38:25 10° SSW
COSMOS 2406 3.3 05:30:28 10° SSW 05:36:12 69° WNW 05:41:58 10° NNE
SL-27 R/B 3.2 05:33:33 11° SW 05:36:51 36° WNW 05:40:16 10° N
Cosmos 1992 Rocket 4.0 05:32:07 10° NNW 05:37:19 68° WSW 05:42:30 10° S
Cosmos 1782 Rocket 3.5 05:37:20 10° NNW 05:41:38 61° W 05:45:54 10° S
Cosmos 2341 Rocket 4.1 05:42:27 10° N 05:48:46 88° E 05:55:06 10° S
MOS 1 Rocket 3.6 05:46:33 10° NNE 05:50:51 64° E 05:55:04 10° S
Okean O Rocket 3.4 05:51:05 10° NNW 05:53:48 16° WNW 05:56:32 10° WSW
CZ-4B R/B 4.2 05:49:45 10° N 05:54:08 27° WNW 05:58:28 10° WSW
Cosmos 2369 Rocket 3.9 05:53:26 10° W 05:54:26 10° W 05:55:26 10° WSW
CZ-4B R/B 4.2 05:50:18 10° NNE 05:54:51 88° E 05:59:19 10° SSW
Okean-O 3.1 05:51:23 10° N 05:55:36 43° WNW 05:59:47 10° SW
Cosmos 2221 Rocket 4.2 05:52:19 10° SW 05:56:24 36° WNW 06:00:30 10° N
ADEOS Rocket 3.8 05:50:24 10° N 05:57:54 59° WNW 06:05:29 10° SSW
